Location: Shepherdstown, WV
(39.4326°N, 77.8042°W)
Time: 10:50:40
(UTC-04:00)

Transit 2A - Pass Details

Date: 13 August 2021
Orbit: 595 x 964 km, 66.7° (Epoch: 18 September)

Event Time Altitude Azimuth Distance (km) Brightness Sun altitude
Exits shadow 04:35:12 42° 237° (WSW) 885 5.8 -18.9°
Maximum altitude 04:36:31 65° 301° (WNW) 697 5.6 -18.7°
Drops below altitude 10° 04:41:12 10° 23° (NNE) 2,107 9.2 -17.9°
Sets 04:43:39 0° 27° (NNE) 3,081 10.3 -17.6°
